This demonstration page uses our WeatherBlox Daily Observations layout. Learn more.

Left ArrowRight Arrow

53.62937, 11.41316

Hourly Observations for February 13, 2018

Temp ( °F °C ) Dew Point ( °F °C ) Humidity (%) Winds ( mph kmh ) Pressure ( in mb ) Visibility ( mi km ) Precip ( " mm )
7:50 am 07:50 Partly Cloudy 28 -2 27 -3 93 93 S 8 13 29.94 1014 4 7 N/A
8:20 am 08:20 Partly Cloudy 28 -2 27 -3 93 93 S 7 11 30.00 1016 4 7 N/A
8:50 am 08:50 Mostly Sunny 30 -1 27 -3 86 86 S 5 7 29.97 1015 4 7 N/A
9:20 am 09:20 Mostly Sunny 30 -1 27 -3 86 86 SSW 7 11 29.97 1015 5 8 N/A
9:50 am 09:50 Mostly Sunny 32 0 28 -2 87 87 SSW 7 11 29.97 1015 7 11 N/A
10:20 am 10:20 Mostly Sunny 34 1 28 -2 81 81 S 7 11 29.97 1015 7 11 N/A
10:50 am 10:50 Mostly Sunny 34 1 28 -2 81 81 S 7 11 29.97 1015 7 11 N/A
11:20 am 11:20 Mostly Sunny 34 1 28 -2 81 81 S 6 9 29.97 1015 7 11 N/A
11:50 am 11:50 Mostly Sunny 37 3 30 -1 75 75 S 7 11 29.97 1015 7 11 N/A
12:20 pm 12:20 Mostly Sunny 37 3 30 -1 75 75 S 6 9 29.97 1015 7 11 N/A
12:50 pm 12:50 Mostly Sunny 37 3 30 -1 75 75 SSE 8 13 29.94 1014 7 11 N/A
1:20 pm 13:20 Mostly Sunny 39 4 30 -1 70 70 S 7 11 29.94 1014 7 11 N/A
1:50 pm 13:50 Mostly Sunny 39 4 30 -1 70 70 S 8 13 29.94 1014 7 11 N/A
2:20 pm 14:20 Mostly Sunny 39 4 30 -1 70 70 S 8 13 29.94 1014 30 48 N/A
2:50 pm 14:50 Mostly Sunny 39 4 30 -1 70 70 S 7 11 29.94 1014 30 48 N/A
3:20 pm 15:20 Mostly Sunny 39 4 28 -2 65 65 S 8 13 29.94 1014 30 48 N/A
3:50 pm 15:50 Mostly Sunny 39 4 28 -2 65 65 S 7 11 29.94 1014 30 48 N/A
4:20 pm 16:20 Mostly Sunny 39 4 28 -2 65 65 S 8 13 29.94 1014 30 48 N/A
4:50 pm 16:50 Mostly Sunny 37 3 28 -2 70 70 SSE 6 9 29.94 1014 7 11 N/A
5:20 pm 17:20 Mostly Clear 36 2 28 -2 75 75 SSE 5 7 29.94 1014 7 11 N/A
5:50 pm 17:50 Mostly Clear 34 1 28 -2 81 81 SE 5 7 29.94 1014 7 11 N/A

Powered by AerisWeather